TimeCST,TemperatureF,Dew PointF,Humidity,Sea Level PressureIn,VisibilityMPH,Wind Direction,Wind SpeedMPH,Gust SpeedMPH,PrecipitationIn,Events,Conditions,WindDirDegrees,DateUTC
12:53 AM,36.0,27.0,70,30.39,10.0,Calm,Calm,-,N/A,,Clear,0,2012-11-16 06:53:00
1:53 AM,35.1,26.1,70,30.39,10.0,Calm,Calm,-,N/A,,Clear,0,2012-11-16 07:53:00
2:53 AM,33.1,26.1,75,30.39,10.0,Calm,Calm,-,N/A,,Clear,0,2012-11-16 08:53:00
3:53 AM,32.0,26.1,79,30.39,10.0,Calm,Calm,-,N/A,,Clear,0,2012-11-16 09:53:00
4:53 AM,34.0,25.0,70,30.40,10.0,Calm,Calm,-,N/A,,Clear,0,2012-11-16 10:53:00
5:53 AM,33.1,25.0,72,30.41,10.0,Calm,Calm,-,N/A,,Clear,0,2012-11-16 11:53:00
6:53 AM,32.0,24.1,73,30.43,10.0,Calm,Calm,-,N/A,,Clear,0,2012-11-16 12:53:00
7:53 AM,39.0,32.0,76,30.45,10.0,Calm,Calm,-,N/A,,Clear,0,2012-11-16 13:53:00
8:53 AM,48.9,28.0,44,30.45,10.0,NE,3.5,-,N/A,,Clear,40,2012-11-16 14:53:00
9:53 AM,51.1,27.0,39,30.45,10.0,East,3.5,-,N/A,,Clear,80,2012-11-16 15:53:00
10:53 AM,54.0,28.0,37,30.45,10.0,East,5.8,-,N/A,,Clear,90,2012-11-16 16:53:00
11:53 AM,57.0,28.9,34,30.43,10.0,NNE,3.5,-,N/A,,Clear,30,2012-11-16 17:53:00
12:53 PM,59.0,28.9,32,30.41,10.0,NNE,4.6,-,N/A,,Clear,30,2012-11-16 18:53:00
1:53 PM,57.9,28.9,33,30.40,10.0,ENE,4.6,-,N/A,,Clear,60,2012-11-16 19:53:00
2:53 PM,60.1,28.9,31,30.39,10.0,Variable,3.5,-,N/A,,Clear,0,2012-11-16 20:53:00
3:53 PM,57.9,27.0,31,30.40,10.0,East,3.5,-,N/A,,Clear,80,2012-11-16 21:53:00
4:53 PM,54.0,27.0,35,30.40,10.0,Calm,Calm,-,N/A,,Clear,0,2012-11-16 22:53:00
5:53 PM,46.0,28.9,51,30.42,10.0,Calm,Calm,-,N/A,,Clear,0,2012-11-16 23:53:00
6:53 PM,43.0,28.9,58,30.42,10.0,Calm,Calm,-,N/A,,Clear,0,2012-11-17 00:53:00
7:53 PM,41.0,28.0,60,30.42,10.0,Calm,Calm,-,N/A,,Clear,0,2012-11-17 01:53:00
8:53 PM,39.0,28.0,65,30.43,10.0,Calm,Calm,-,N/A,,Clear,0,2012-11-17 02:53:00
9:53 PM,36.0,28.0,73,30.43,10.0,Calm,Calm,-,N/A,,Clear,0,2012-11-17 03:53:00
10:53 PM,35.1,27.0,72,30.44,10.0,Calm,Calm,-,N/A,,Clear,0,2012-11-17 04:53:00
11:53 PM,34.0,26.1,73,30.45,10.0,Calm,Calm,-,N/A,,Clear,0,2012-11-17 05:53:00